Tracking 19476 objects as of 16-Jan-2019
HD Live streaming from Space Station
objects crossing your sky now

CHUANG XIN 1-02(CX-1-02)

Track CHUANG XIN 1-02(CX-1-02) now!
10-day predictions
CHUANG XIN 1-02(CX-1-02) is classified as:


NORAD ID: 33434
Int'l Code: 2008-056B
Perigee: 790.2 km
Apogee: 811.4 km
Inclination: 98.7 °
Period: 100.7 minutes
Semi major axis: 7171 km
RCS: 0.5773 m2 (medium)
Launch date: November 5, 2008
Source: People's Republic of China (PRC)
Launch site: Jiuquan Satellite Launch Center, China (JSC)

Shiyan 3 will test new technologies for atmospheric exploration.
aabbcc
Your satellite tracking list
Your tracking list is empty




NASA's NSSDC Master Catalog

Two Line Element Set (TLE):
1 33434U 08056B   19016.48267518 -.00000028  00000-0  64821-5 0  9991
2 33434  98.6785  13.2196 0014777 151.0465 209.1538 14.29431427531972
Source of the keplerian elements: AFSPC